Location: Miles
(41.4492°N, 81.6087°W)
Time: 01:10:18
(UTC+00:00)

Courier 1B Rocket - Pass Details

Date: 20 September 2024
Orbit: 920 x 1201 km, 28.3° (Epoch: 15 October)

Event Time Altitude Azimuth Distance (km) Brightness Sun altitude
Rises 20:03:34 0° 238° (WSW) 3,566 9.0 35.0°
Reaches altitude 10° 20:06:37 10° 225° (SW) 2,647 8.7 34.5°
Maximum altitude 20:11:35 24° 173° (S) 1,874 7.1 33.8°
Drops below altitude 10° 20:16:47 10° 122° (ESE) 2,774 7.3 33.0°
Sets 20:20:04 0° 109° (ESE) 3,776 7.8 32.4°
